CHINASAT 1C (ZX 1C)

Last updated on Jan. 29, 2020, 4:37 a.m. UTC

1 41103U 15073A   20028.87453859 -.00000152  00000-0  00000-0 0  9995
2 41103   1.2875  93.8916 0002775 213.9214 216.1074  1.00271010 15293
UTC
Height (km)
Latitude
Longitude
Inclination
Orbital Period
UTC large
Height (km)
Speed (km/s)
/
Latitude / Longitude
Inclination (degrees)
Orbital Period (minutes)
Azimuth
Elevation
Range (km)
Doppler Factor
iOS Compass Heading
iOS Angle

Next 30 passes for location: Hong Kong

Rise time Rise Azimuth (degrees) Set time Set Azimuth (degrees) Duration Max altitude (degrees)

No matching passes for this satellites